Wetterdaten: Jahr 2013
Datum Temp Feuchte Luftdruck Regen Wind Richtung Sonnenschein UV Solar Windben
01.01.2013 4,6 C 94 % 1005,9 hPa 11,0 l/m 7,4 km/h S 0,00 h 0,0 UV-I 25 W/m 25,3 km/h
02.01.2013 4,1 C 93 % 1022,8 hPa 1,0 l/m 4,0 km/h S-SW 0,00 h 0,5 UV-I 34 W/m 19,3 km/h
03.01.2013 7,6 C 99 % 1028,6 hPa 9,4 l/m 7,4 km/h W-SW 0,00 h 0,0 UV-I 15 W/m 31,0 km/h
04.01.2013 7,4 C 99 % 1031,0 hPa 5,4 l/m 7,5 km/h W-NW 0,00 h 0,0 UV-I 11 W/m 29,0 km/h
05.01.2013 5,8 C 99 % 1030,8 hPa 2,0 l/m 2,8 km/h NW 0,00 h 0,0 UV-I 11 W/m 18,5 km/h
06.01.2013 6,0 C 99 % 1027,2 hPa 3,2 l/m 3,7 km/h N-NW 0,00 h 0,0 UV-I 13 W/m 16,9 km/h
07.01.2013 5,8 C 99 % 1026,9 hPa 0,0 l/m 0,7 km/h W-NW 0,00 h 0,5 UV-I 34 W/m 6,0 km/h
08.01.2013 4,9 C 98 % 1023,9 hPa 3,0 l/m 3,7 km/h W-NW 0,00 h 0,0 UV-I 14 W/m 16,9 km/h
09.01.2013 4,3 C 99 % 1016,8 hPa 14,4 l/m 2,1 km/h W 0,00 h 0,0 UV-I 24 W/m 12,1 km/h
10.01.2013 0,8 C 96 % 1010,5 hPa 4,8 l/m 4,2 km/h W 0,00 h 0,0 UV-I 39 W/m 18,1 km/h
11.01.2013 -2,2 C 94 % 1017,1 hPa 0,0 l/m 0,3 km/h NW 0,00 h 0,5 UV-I 48 W/m 4,0 km/h
12.01.2013 -5,0 C 91 % 1019,3 hPa 0,0 l/m 0,1 km/h O-SO 5,42 h 0,6 UV-I 156 W/m 1,2 km/h
13.01.2013 -4,1 C 94 % 1018,2 hPa 0,2 l/m 0,9 km/h O-SO 0,00 h 0,0 UV-I 47 W/m 5,2 km/h
14.01.2013 -5,4 C 92 % 1012,6 hPa 0,0 l/m 0,4 km/h O-SO 1,25 h 0,5 UV-I 80 W/m 4,0 km/h
15.01.2013 -5,0 C 92 % 1007,5 hPa 2,0 l/m 4,7 km/h S-SO 0,00 h 0,5 UV-I 57 W/m 10,5 km/h
16.01.2013 -4,2 C 94 % 1010,8 hPa 0,2 l/m 0,8 km/h N 0,00 h 0,0 UV-I 25 W/m 5,2 km/h
17.01.2013 -3,2 C 95 % 1017,2 hPa 0,4 l/m 0,6 km/h N-NO 0,00 h 0,0 UV-I 22 W/m 3,6 km/h
18.01.2013 -4,2 C 91 % 1009,4 hPa 0,0 l/m 1,4 km/h SO 0,00 h 0,0 UV-I 21 W/m 8,4 km/h
19.01.2013 -7,3 C 86 % 1001,4 hPa 0,0 l/m 0,5 km/h O-SO 2,95 h 0,6 UV-I 124 W/m 7,6 km/h
20.01.2013 -5,5 C 91 % 998,0 hPa 1,4 l/m 3,7 km/h O-SO 0,00 h 0,5 UV-I 53 W/m 17,7 km/h
21.01.2013 -5,5 C 95 % 1001,1 hPa 7,2 l/m 1,6 km/h O-SO 0,00 h 0,0 UV-I 52 W/m 9,6 km/h
22.01.2013 -5,8 C 93 % 1007,0 hPa 0,0 l/m 0,1 km/h SO 0,00 h 0,0 UV-I 42 W/m 1,6 km/h
23.01.2013 -6,1 C 92 % 1010,3 hPa 0,0 l/m 0,0 km/h O 0,00 h 0,0 UV-I 50 W/m 0,0 km/h
24.01.2013 -3,6 C 93 % 1016,3 hPa 0,0 l/m 0,3 km/h N 0,00 h 0,5 UV-I 69 W/m 1,6 km/h
25.01.2013 -6,2 C 92 % 1018,7 hPa 0,0 l/m 10,0 km/h S-SO 0,00 h 0,6 UV-I 74 W/m 14,9 km/h
26.01.2013 -4,8 C 92 % 1011,8 hPa 0,4 l/m 9,9 km/h S-SO 4,92 h 0,8 UV-I 147 W/m 14,9 km/h
27.01.2013 1,1 C 95 % 1004,3 hPa 3,4 l/m 8,6 km/h S 0,00 h 0,6 UV-I 56 W/m 15,7 km/h
28.01.2013 2,1 C 91 % 1011,8 hPa 0,4 l/m 4,7 km/h S 0,83 h 0,6 UV-I 83 W/m 17,7 km/h
29.01.2013 7,7 C 98 % 1007,0 hPa 12,0 l/m 7,0 km/h S-SW 0,00 h 0,0 UV-I 30 W/m 19,7 km/h
30.01.2013 8,1 C 90 % 1005,6 hPa 6,8 l/m 11,3 km/h S-SW 0,00 h 0,0 UV-I 24 W/m 31,8 km/h
31.01.2013 5,0 C 86 % 1009,2 hPa 1,0 l/m 14,1 km/h S-SW 0,00 h 0,5 UV-I 45 W/m 35,8 km/h
01.02.2013 3,2 C 95 % 996,6 hPa 9,6 l/m 0,3 km/h SW 0,00 h 0,5 UV-I 43 W/m 2,4 km/h
02.02.2013 1,2 C 92 % 1005,5 hPa 2,2 l/m 8,6 km/h N-NW 2,25 h 0,7 UV-I 115 W/m 22,5 km/h
03.02.2013 1,1 C 94 % 1011,3 hPa 5,4 l/m 3,5 km/h NW 0,17 h 0,6 UV-I 71 W/m 17,7 km/h
04.02.2013 4,7 C 92 % 1006,6 hPa 14,8 l/m 7,4 km/h W-SW 0,00 h 0,5 UV-I 42 W/m 24,5 km/h
05.02.2013 0,4 C 90 % 997,0 hPa 5,4 l/m 7,4 km/h S-SW 0,50 h 0,5 UV-I 37 W/m 20,5 km/h
06.02.2013 -0,1 C 89 % 1000,3 hPa 0,0 l/m 0,2 km/h S-SO 4,58 h 0,9 UV-I 192 W/m 4,0 km/h
07.02.2013 -0,4 C 92 % 1009,0 hPa 1,0 l/m 1,0 km/h NW 0,08 h 0,6 UV-I 82 W/m 5,3 km/h
08.02.2013 -1,7 C 93 % 1013,6 hPa 0,0 l/m 1,2 km/h NW 0,25 h 0,5 UV-I 76 W/m 6,4 km/h
09.02.2013 -3,1 C 91 % 1018,3 hPa 0,2 l/m 0,5 km/h W-NW 1,17 h 0,7 UV-I 118 W/m 1,6 km/h
10.02.2013 -4,7 C 83 % 1011,6 hPa 0,0 l/m 9,9 km/h SO 4,75 h 0,9 UV-I 188 W/m 22,1 km/h
11.02.2013 -2,8 C 79 % 1007,2 hPa 0,0 l/m 5,8 km/h O-SO 7,00 h 0,9 UV-I 214 W/m 21,3 km/h
12.02.2013 -2,6 C 77 % 1015,3 hPa 0,0 l/m 2,5 km/h O-NO 0,00 h 0,5 UV-I 70 W/m 8,1 km/h
13.02.2013 -2,8 C 87 % 1025,6 hPa 0,0 l/m 0,0 km/h N 3,50 h 0,8 UV-I 145 W/m 0,0 km/h
14.02.2013 -2,0 C 82 % 1018,6 hPa 0,2 l/m 13,5 km/h S-SO 6,17 h 1,0 UV-I 209 W/m 25,3 km/h
15.02.2013 0,5 C 96 % 1019,3 hPa 2,0 l/m 0,1 km/h S 0,00 h 0,6 UV-I 70 W/m 2,8 km/h
16.02.2013 1,9 C 99 % 1023,4 hPa 5,6 l/m 0,1 km/h SW 0,00 h 0,6 UV-I 61 W/m 1,2 km/h
17.02.2013 1,7 C 95 % 1023,8 hPa 0,0 l/m 2,3 km/h O-SO 0,83 h 0,8 UV-I 112 W/m 6,0 km/h
18.02.2013 0,5 C 90 % 1021,0 hPa 0,0 l/m 0,0 km/h SO 0,00 h 0,7 UV-I 87 W/m 0,0 km/h
19.02.2013 -0,7 C 94 % 1017,3 hPa 4,2 l/m 1,1 km/h NW 0,00 h 0,6 UV-I 25 W/m 4,0 km/h
20.02.2013 -2,7 C 91 % 1024,4 hPa 0,4 l/m 1,1 km/h N-NO 0,50 h 0,8 UV-I 102 W/m 4,8 km/h
21.02.2013 -3,1 C 91 % 1022,2 hPa 0,8 l/m 2,9 km/h N-NO 1,50 h 0,9 UV-I 116 W/m 10,4 km/h
22.02.2013 -4,9 C 89 % 1017,8 hPa 0,0 l/m 6,0 km/h N-NO 3,42 h 1,1 UV-I 175 W/m 16,5 km/h
23.02.2013 -3,8 C 92 % 1014,8 hPa 1,8 l/m 6,0 km/h N-NO 0,08 h 0,5 UV-I 93 W/m 15,7 km/h
24.02.2013 -0,5 C 94 % 1015,4 hPa 1,0 l/m 2,5 km/h N-NO 0,25 h 0,9 UV-I 75 W/m 6,1 km/h
25.02.2013 0,2 C 97 % 1022,7 hPa 1,6 l/m 2,5 km/h N-NO 0,00 h 0,8 UV-I 76 W/m 12,5 km/h
26.02.2013 0,0 C 98 % 1031,4 hPa 0,2 l/m 3,6 km/h N-NO 0,25 h 1,0 UV-I 106 W/m 13,3 km/h
27.02.2013 -0,9 C 95 % 1031,5 hPa 0,0 l/m 0,4 km/h NO 0,00 h 0,8 UV-I 77 W/m 4,8 km/h
28.02.2013 0,5 C 90 % 1026,8 hPa 0,0 l/m 3,1 km/h N-NW 0,00 h 1,0 UV-I 108 W/m 7,3 km/h
01.03.2013 0,5 C 91 % 1024,8 hPa 0,2 l/m 1,0 km/h N-NW 0,00 h 0,9 UV-I 88 W/m 4,8 km/h
02.03.2013 -0,3 C 86 % 1023,8 hPa 0,2 l/m 0,9 km/h W 8,58 h 1,4 UV-I 297 W/m 5,6 km/h
03.03.2013 0,1 C 95 % 1023,4 hPa 0,8 l/m 1,2 km/h W 0,00 h 1,0 UV-I 113 W/m 4,0 km/h
04.03.2013 2,7 C 80 % 1019,2 hPa 0,0 l/m 11,2 km/h S-SO 8,50 h 1,6 UV-I 305 W/m 21,7 km/h
05.03.2013 4,1 C 73 % 1009,7 hPa 0,0 l/m 0,3 km/h S-SO 8,75 h 1,5 UV-I 318 W/m 2,4 km/h
06.03.2013 6,6 C 68 % 1004,2 hPa 0,0 l/m 2,0 km/h O-SO 8,33 h 1,4 UV-I 293 W/m 2,8 km/h
07.03.2013 6,2 C 81 % 1001,3 hPa 0,0 l/m 0,4 km/h SO 0,00 h 0,8 UV-I 95 W/m 4,8 km/h
08.03.2013 3,4 C 95 % 1002,1 hPa 2,0 l/m 3,8 km/h O-SO 0,75 h 1,0 UV-I 113 W/m 19,3 km/h
09.03.2013 4,1 C 98 % 999,9 hPa 11,6 l/m 4,2 km/h S-SO 0,00 h 0,6 UV-I 40 W/m 12,9 km/h
10.03.2013 -2,3 C 96 % 1001,2 hPa 4,6 l/m 1,9 km/h N-NO 0,00 h 0,5 UV-I 45 W/m 10,9 km/h
11.03.2013 -5,2 C 87 % 1007,0 hPa 0,0 l/m 1,9 km/h N-NO 0,25 h 0,7 UV-I 95 W/m 11,7 km/h
12.03.2013 -5,1 C 89 % 1005,0 hPa 0,8 l/m 2,6 km/h N-NO 0,00 h 0,5 UV-I 65 W/m 8,4 km/h
13.03.2013 -4,7 C 82 % 1006,8 hPa 0,0 l/m 0,3 km/h W 7,42 h 1,5 UV-I 322 W/m 1,6 km/h
14.03.2013 -5,5 C 87 % 1012,0 hPa 0,6 l/m 0,7 km/h N-NW 1,17 h 1,0 UV-I 145 W/m 3,2 km/h
15.03.2013 -4,5 C 75 % 1016,5 hPa 0,0 l/m 1,3 km/h S 8,75 h 1,6 UV-I 351 W/m 4,4 km/h
16.03.2013 2,1 C 62 % 1010,8 hPa 0,2 l/m 18,4 km/h S-SO 4,67 h 1,4 UV-I 244 W/m 31,0 km/h
17.03.2013 0,6 C 84 % 999,9 hPa 1,0 l/m 10,2 km/h SO 0,42 h 0,7 UV-I 86 W/m 22,1 km/h
18.03.2013 2,6 C 88 % 994,6 hPa 0,6 l/m 0,4 km/h SO 6,33 h 1,3 UV-I 266 W/m 2,8 km/h
19.03.2013 -0,0 C 90 % 1000,0 hPa 0,0 l/m 0,3 km/h N 0,00 h 0,8 UV-I 96 W/m 5,6 km/h
20.03.2013 -1,4 C 94 % 1005,9 hPa 5,2 l/m 1,5 km/h N-NO 0,17 h 0,7 UV-I 83 W/m 9,3 km/h
21.03.2013 -1,1 C 93 % 1018,8 hPa 0,2 l/m 1,0 km/h NW 0,08 h 1,0 UV-I 59 W/m 3,6 km/h
22.03.2013 -2,3 C 85 % 1019,7 hPa 0,0 l/m 3,2 km/h O-SO 1,75 h 1,5 UV-I 173 W/m 16,5 km/h
23.03.2013 -4,8 C 64 % 1020,3 hPa 0,0 l/m 11,9 km/h O-SO 6,92 h 1,8 UV-I 257 W/m 27,8 km/h
24.03.2013 -4,4 C 54 % 1019,1 hPa 0,0 l/m 8,2 km/h O 10,17 h 1,9 UV-I 336 W/m 25,3 km/h
25.03.2013 -3,6 C 67 % 1016,6 hPa 0,0 l/m 5,4 km/h O-NO 9,58 h 1,9 UV-I 378 W/m 23,3 km/h
26.03.2013 -2,7 C 67 % 1015,0 hPa 0,0 l/m 3,0 km/h O-NO 10,00 h 1,8 UV-I 370 W/m 12,1 km/h
27.03.2013 -1,8 C 65 % 1012,9 hPa 0,2 l/m 4,8 km/h O 9,50 h 1,8 UV-I 359 W/m 18,1 km/h
28.03.2013 -1,8 C 86 % 1009,3 hPa 0,0 l/m 0,5 km/h O-SO 1,17 h 1,1 UV-I 161 W/m 4,0 km/h
29.03.2013 -1,7 C 92 % 1007,8 hPa 0,2 l/m 0,7 km/h W 0,00 h 0,8 UV-I 100 W/m 3,2 km/h
30.03.2013 -0,7 C 91 % 1008,7 hPa 0,2 l/m 1,4 km/h N-NO 1,42 h 1,1 UV-I 173 W/m 4,4 km/h
31.03.2013 -1,3 C 87 % 1012,3 hPa 0,2 l/m 2,5 km/h N-NO 1,08 h 0,9 UV-I 145 W/m 5,6 km/h
01.04.2013 -2,1 C 73 % 1011,8 hPa 0,0 l/m 0,9 km/h N-NO 9,42 h 1,8 UV-I 394 W/m 4,8 km/h
02.04.2013 -0,0 C 70 % 1014,7 hPa 0,0 l/m 4,1 km/h N-NO 9,75 h 1,8 UV-I 401 W/m 14,9 km/h
03.04.2013 -0,3 C 72 % 1017,0 hPa 0,0 l/m 5,0 km/h O 0,50 h 0,8 UV-I 119 W/m 17,7 km/h
04.04.2013 1,3 C 76 % 1012,9 hPa 0,0 l/m 6,3 km/h O 1,75 h 1,3 UV-I 202 W/m 20,1 km/h
05.04.2013 0,5 C 90 % 1012,1 hPa 0,0 l/m 2,0 km/h N-NO 0,00 h 0,8 UV-I 68 W/m 11,3 km/h
06.04.2013 0,8 C 87 % 1019,8 hPa 0,8 l/m 1,3 km/h N-NO 1,58 h 1,3 UV-I 171 W/m 5,3 km/h
07.04.2013 0,9 C 74 % 1019,6 hPa 0,0 l/m 0,4 km/h N-NW 6,50 h 1,8 UV-I 317 W/m 2,0 km/h
08.04.2013 4,3 C 60 % 1007,5 hPa 0,0 l/m 3,9 km/h O-SO 7,33 h 1,8 UV-I 308 W/m 12,9 km/h
09.04.2013 5,3 C 88 % 1001,8 hPa 2,2 l/m 5,1 km/h SO 3,75 h 1,7 UV-I 239 W/m 12,9 km/h
10.04.2013 6,4 C 94 % 1005,1 hPa 2,4 l/m 0,7 km/h S-SO 0,58 h 1,0 UV-I 114 W/m 6,0 km/h
11.04.2013 9,4 C 84 % 999,3 hPa 4,8 l/m 4,8 km/h S-SO 1,25 h 1,4 UV-I 156 W/m 12,5 km/h
12.04.2013 8,6 C 87 % 1002,2 hPa 6,4 l/m 2,5 km/h S 1,75 h 1,5 UV-I 178 W/m 8,4 km/h
13.04.2013 6,1 C 91 % 1017,4 hPa 11,0 l/m 1,2 km/h S-SW 2,33 h 1,2 UV-I 160 W/m 8,0 km/h
14.04.2013 13,1 C 82 % 1022,0 hPa 0,8 l/m 1,5 km/h S-SO 4,33 h 1,9 UV-I 239 W/m 7,7 km/h
15.04.2013 15,7 C 75 % 1018,7 hPa 0,2 l/m 1,3 km/h S-SO 7,67 h 2,4 UV-I 356 W/m 5,6 km/h
16.04.2013 14,6 C 67 % 1018,6 hPa 0,0 l/m 2,6 km/h S-SW 5,25 h 2,2 UV-I 301 W/m 8,4 km/h
17.04.2013 13,6 C 85 % 1018,9 hPa 0,0 l/m 2,7 km/h S 2,83 h 1,6 UV-I 181 W/m 4,8 km/h
18.04.2013 13,4 C 57 % 1015,0 hPa 0,0 l/m 5,3 km/h S 8,83 h 2,6 UV-I 358 W/m 18,9 km/h
19.04.2013 8,4 C 76 % 1023,4 hPa 0,0 l/m 2,5 km/h NW 6,67 h 1,8 UV-I 306 W/m 11,6 km/h
20.04.2013 5,4 C 73 % 1028,6 hPa 0,0 l/m 3,0 km/h N-NO 9,67 h 2,4 UV-I 420 W/m 8,9 km/h
21.04.2013 10,7 C 71 % 1017,8 hPa 0,0 l/m 0,6 km/h SO 8,17 h 2,3 UV-I 366 W/m 5,6 km/h
22.04.2013 8,1 C 69 % 1015,9 hPa 0,0 l/m 1,0 km/h W 5,42 h 1,8 UV-I 271 W/m 5,6 km/h
23.04.2013 10,8 C 80 % 1020,3 hPa 0,0 l/m 4,1 km/h S-SW 0,33 h 1,8 UV-I 171 W/m 10,9 km/h
24.04.2013 14,1 C 69 % 1023,9 hPa 0,0 l/m 0,7 km/h S-SW 9,25 h 3,2 UV-I 394 W/m 4,4 km/h
25.04.2013 15,2 C 80 % 1020,1 hPa 0,0 l/m 0,7 km/h S 5,42 h 3,0 UV-I 317 W/m 2,4 km/h
26.04.2013 10,4 C 85 % 1007,2 hPa 5,8 l/m 6,1 km/h N-NW 3,83 h 1,7 UV-I 180 W/m 16,9 km/h
27.04.2013 4,8 C 91 % 1010,4 hPa 0,8 l/m 6,9 km/h N 0,00 h 0,9 UV-I 102 W/m 14,9 km/h
28.04.2013 7,4 C 77 % 1015,6 hPa 0,2 l/m 0,3 km/h S-SO 6,75 h 2,4 UV-I 405 W/m 4,0 km/h
29.04.2013 8,4 C 74 % 1017,2 hPa 0,0 l/m 1,3 km/h S-SW 6,83 h 2,3 UV-I 355 W/m 5,6 km/h
30.04.2013 8,2 C 70 % 1022,8 hPa 0,0 l/m 0,8 km/h N-NO 6,25 h 2,1 UV-I 294 W/m 4,0 km/h
01.05.2013 10,4 C 74 % 1022,2 hPa 0,0 l/m 2,6 km/h SO 8,00 h 2,9 UV-I 383 W/m 7,6 km/h
02.05.2013 10,7 C 84 % 1020,0 hPa 0,0 l/m 0,9 km/h NO 0,50 h 1,6 UV-I 163 W/m 3,6 km/h
03.05.2013 12,2 C 78 % 1016,6 hPa 0,0 l/m 0,0 km/h NO 5,00 h 2,0 UV-I 284 W/m 0,0 km/h
04.05.2013 12,7 C 71 % 1017,2 hPa 0,0 l/m 0,3 km/h W-NW 9,57 h 2,5 UV-I 389 W/m 1,6 km/h
05.05.2013 12,7 C 75 % 1022,3 hPa 0,0 l/m 0,0 km/h S-SW 10,50 h 3,0 UV-I 418 W/m 0,8 km/h
06.05.2013 16,2 C 63 % 1018,6 hPa 0,0 l/m 0,4 km/h SO 9,33 h 2,9 UV-I 420 W/m 2,8 km/h
07.05.2013 13,7 C 91 % 1014,4 hPa 0,2 l/m 0,6 km/h N-NO 0,92 h 1,6 UV-I 159 W/m 4,4 km/h
08.05.2013 15,6 C 80 % 1011,1 hPa 0,2 l/m 5,1 km/h S 7,50 h 2,2 UV-I 341 W/m 10,5 km/h
09.05.2013 13,5 C 90 % 1011,4 hPa 0,6 l/m 0,7 km/h W 4,58 h 2,0 UV-I 250 W/m 5,6 km/h
10.05.2013 11,2 C 79 % 1013,9 hPa 0,0 l/m 1,5 km/h S-SW 4,83 h 2,3 UV-I 298 W/m 5,2 km/h
11.05.2013 9,9 C 84 % 1012,9 hPa 0,2 l/m 4,1 km/h S-SW 5,50 h 1,9 UV-I 245 W/m 6,8 km/h
12.05.2013 7,4 C 87 % 1013,9 hPa 3,0 l/m 2,0 km/h S-SW 3,83 h 1,9 UV-I 257 W/m 10,4 km/h
13.05.2013 9,0 C 94 % 1012,1 hPa 8,0 l/m 4,7 km/h S 0,50 h 1,2 UV-I 110 W/m 10,4 km/h
14.05.2013 9,4 C 85 % 1008,1 hPa 0,8 l/m 1,6 km/h S-SW 3,08 h 2,0 UV-I 227 W/m 4,0 km/h
15.05.2013 13,8 C 84 % 1001,3 hPa 0,0 l/m 8,1 km/h S 3,78 h 2,3 UV-I 265 W/m 14,1 km/h
16.05.2013 14,8 C 90 % 996,4 hPa 5,4 l/m 2,2 km/h N-NO 4,83 h 2,2 UV-I 274 W/m 10,1 km/h
17.05.2013 11,0 C 99 % 1000,7 hPa 12,0 l/m 1,0 km/h N-NW 0,00 h 0,9 UV-I 71 W/m 8,5 km/h
18.05.2013 8,3 C 96 % 1008,9 hPa 7,4 l/m 0,8 km/h W-SW 0,33 h 1,0 UV-I 98 W/m 7,7 km/h
19.05.2013 12,6 C 87 % 1007,5 hPa 0,2 l/m 0,5 km/h N-NO 10,33 h 3,0 UV-I 385 W/m 3,6 km/h
20.05.2013 11,0 C 94 % 1007,9 hPa 4,4 l/m 1,9 km/h S-SO 0,75 h 1,5 UV-I 151 W/m 4,8 km/h
21.05.2013 11,6 C 87 % 1008,2 hPa 8,2 l/m 2,9 km/h S 1,33 h 1,7 UV-I 187 W/m 6,4 km/h
22.05.2013 7,2 C 89 % 1009,3 hPa 11,0 l/m 10,8 km/h N-NW 0,00 h 1,1 UV-I 101 W/m 24,1 km/h
23.05.2013 4,1 C 96 % 1007,2 hPa 3,8 l/m 0,1 km/h NW 0,08 h 0,8 UV-I 72 W/m 0,4 km/h
24.05.2013 5,9 C 84 % 1012,2 hPa 1,2 l/m 0,3 km/h W 5,58 h 2,3 UV-I 288 W/m 2,0 km/h
25.05.2013 7,5 C 87 % 1012,0 hPa 5,2 l/m 1,2 km/h N-NW 5,75 h 2,4 UV-I 299 W/m 7,2 km/h
26.05.2013 7,9 C 98 % 1006,6 hPa 34,8 l/m 7,5 km/h NW 0,00 h 0,8 UV-I 48 W/m 30,5 km/h
27.05.2013 9,4 C 97 % 1008,6 hPa 4,6 l/m 2,3 km/h W-NW 0,67 h 1,6 UV-I 135 W/m 8,1 km/h
28.05.2013 13,3 C 78 % 1002,9 hPa 0,2 l/m 0,4 km/h SO 9,08 h 2,9 UV-I 396 W/m 2,0 km/h
29.05.2013 9,7 C 95 % 1000,8 hPa 4,4 l/m 1,3 km/h S-SW 0,50 h 1,2 UV-I 98 W/m 4,0 km/h
30.05.2013 12,0 C 83 % 1007,2 hPa 0,2 l/m 1,6 km/h N-NW 1,58 h 1,9 UV-I 214 W/m 6,4 km/h
31.05.2013 14,3 C 87 % 1006,1 hPa 3,4 l/m 3,9 km/h N-NW 0,42 h 1,0 UV-I 99 W/m 18,1 km/h
01.06.2013 9,6 C 99 % 1014,1 hPa 0,4 l/m 4,0 km/h N-NW 0,00 h 0,7 UV-I 44 W/m 17,3 km/h
02.06.2013 10,6 C 67 % 1022,5 hPa 0,0 l/m 13,9 km/h N-NW 7,67 h 3,0 UV-I 358 W/m 33,0 km/h
03.06.2013 11,7 C 71 % 1025,1 hPa 0,0 l/m 4,5 km/h N-NW 9,75 h 3,6 UV-I 437 W/m 16,1 km/h
04.06.2013 13,6 C 78 % 1021,0 hPa 0,0 l/m 1,6 km/h N-NW 6,17 h 3,1 UV-I 339 W/m 4,8 km/h
05.06.2013 15,8 C 64 % 1018,7 hPa 0,0 l/m 4,1 km/h S-SO 8,92 h 3,1 UV-I 395 W/m 8,9 km/h
06.06.2013 17,6 C 61 % 1020,1 hPa 0,0 l/m 1,3 km/h SO 12,17 h 3,2 UV-I 456 W/m 3,6 km/h
07.06.2013 18,7 C 70 % 1019,5 hPa 0,0 l/m 1,1 km/h N-NO 9,92 h 2,8 UV-I 404 W/m 3,6 km/h
08.06.2013 18,6 C 67 % 1014,9 hPa 0,0 l/m 4,4 km/h N-NO 9,00 h 2,9 UV-I 397 W/m 13,3 km/h
09.06.2013 14,1 C 82 % 1010,1 hPa 0,0 l/m 1,6 km/h N-NO 4,33 h 2,4 UV-I 264 W/m 8,8 km/h
10.06.2013 13,0 C 82 % 1012,1 hPa 0,0 l/m 2,0 km/h N-NW 6,83 h 2,5 UV-I 333 W/m 6,4 km/h
11.06.2013 14,9 C 77 % 1016,5 hPa 0,0 l/m 0,6 km/h NW 8,67 h 2,9 UV-I 390 W/m 3,6 km/h
12.06.2013 17,7 C 79 % 1016,7 hPa 0,0 l/m 3,8 km/h S 3,92 h 2,4 UV-I 207 W/m 7,2 km/h
13.06.2013 16,1 C 87 % 1013,2 hPa 16,0 l/m 3,3 km/h S 3,17 h 3,1 UV-I 238 W/m 15,7 km/h
14.06.2013 13,8 C 79 % 1018,1 hPa 0,2 l/m 0,6 km/h S-SW 3,17 h 2,5 UV-I 276 W/m 3,6 km/h
15.06.2013 15,0 C 75 % 1012,0 hPa 0,4 l/m 9,5 km/h S 6,00 h 2,3 UV-I 284 W/m 18,1 km/h
16.06.2013 15,2 C 73 % 1015,5 hPa 0,0 l/m 3,2 km/h S-SW 6,83 h 2,9 UV-I 322 W/m 8,1 km/h
17.06.2013 20,0 C 72 % 1014,2 hPa 0,0 l/m 2,1 km/h O-SO 9,67 h 3,3 UV-I 396 W/m 4,8 km/h
18.06.2013 24,3 C 76 % 1014,3 hPa 0,0 l/m 0,6 km/h N-NW 13,00 h 3,6 UV-I 460 W/m 1,6 km/h
19.06.2013 26,4 C 75 % 1010,7 hPa 0,0 l/m 3,6 km/h SO 9,25 h 3,5 UV-I 387 W/m 12,4 km/h
20.06.2013 21,3 C 86 % 1009,6 hPa 9,0 l/m 1,1 km/h SO 6,33 h 3,0 UV-I 297 W/m 3,6 km/h
21.06.2013 16,8 C 84 % 1011,6 hPa 10,6 l/m 4,9 km/h S-SW 3,75 h 2,4 UV-I 286 W/m 13,7 km/h
22.06.2013 17,9 C 75 % 1011,7 hPa 0,0 l/m 9,8 km/h S 4,50 h 2,5 UV-I 297 W/m 22,9 km/h
23.06.2013 14,0 C 84 % 1011,3 hPa 4,8 l/m 5,8 km/h S 2,92 h 2,0 UV-I 229 W/m 15,3 km/h
24.06.2013 13,3 C 91 % 1019,0 hPa 3,0 l/m 0,6 km/h NW 2,18 h 2,2 UV-I 200 W/m 4,4 km/h
25.06.2013 11,1 C 88 % 1024,3 hPa 3,2 l/m 10,2 km/h N-NW 0,67 h 1,6 UV-I 129 W/m 22,1 km/h
26.06.2013 10,6 C 85 % 1025,3 hPa 2,2 l/m 3,2 km/h NW 0,58 h 1,8 UV-I 168 W/m 15,3 km/h
27.06.2013 11,4 C 88 % 1021,6 hPa 3,6 l/m 1,5 km/h S-SW 1,08 h 1,9 UV-I 190 W/m 6,9 km/h
28.06.2013 11,2 C 96 % 1018,3 hPa 5,6 l/m 0,6 km/h S 0,00 h 1,1 UV-I 97 W/m 4,0 km/h
29.06.2013 12,4 C 85 % 1017,9 hPa 6,2 l/m 4,0 km/h N-NW 2,58 h 2,1 UV-I 209 W/m 9,3 km/h
30.06.2013 12,8 C 87 % 1020,8 hPa 0,0 l/m 0,7 km/h S 4,83 h 2,1 UV-I 243 W/m 2,8 km/h
01.07.2013 17,5 C 84 % 1015,7 hPa 0,4 l/m 2,6 km/h S 7,83 h 3,5 UV-I 408 W/m 7,7 km/h
02.07.2013 16,3 C 81 % 1013,2 hPa 0,0 l/m 0,4 km/h S-SW 7,67 h 3,3 UV-I 385 W/m 2,0 km/h
03.07.2013 17,3 C 90 % 1009,8 hPa 3,0 l/m 5,3 km/h S 0,42 h 1,8 UV-I 173 W/m 9,6 km/h
04.07.2013 18,1 C 81 % 1020,3 hPa 0,2 l/m 1,0 km/h W 5,42 h 3,0 UV-I 321 W/m 4,8 km/h
05.07.2013 18,4 C 84 % 1027,5 hPa 0,0 l/m 0,2 km/h N-NW 3,23 h 2,3 UV-I 234 W/m 0,8 km/h
06.07.2013 18,9 C 72 % 1029,2 hPa 0,0 l/m 0,8 km/h N-NO 11,00 h 3,2 UV-I 401 W/m 5,2 km/h
07.07.2013 19,6 C 72 % 1029,6 hPa 0,0 l/m 0,5 km/h N-NO 13,00 h 3,5 UV-I 470 W/m 3,6 km/h
08.07.2013 20,7 C 72 % 1028,7 hPa 0,0 l/m 1,8 km/h N-NO 12,92 h 3,2 UV-I 455 W/m 4,8 km/h
09.07.2013 20,8 C 68 % 1022,8 hPa 0,0 l/m 1,1 km/h N-NO 11,25 h 3,2 UV-I 424 W/m 6,8 km/h
10.07.2013 15,4 C 81 % 1019,3 hPa 0,0 l/m 3,0 km/h N-NW 6,33 h 2,1 UV-I 282 W/m 15,3 km/h
11.07.2013 14,3 C 86 % 1020,5 hPa 0,0 l/m 1,7 km/h NW 3,50 h 1,9 UV-I 228 W/m 4,0 km/h
12.07.2013 13,0 C 88 % 1021,6 hPa 0,0 l/m 2,2 km/h W-NW 5,33 h 1,9 UV-I 248 W/m 6,9 km/h
13.07.2013 14,4 C 84 % 1022,1 hPa 0,0 l/m 0,8 km/h N-NW 7,17 h 2,0 UV-I 290 W/m 3,6 km/h
14.07.2013 13,7 C 91 % 1022,5 hPa 0,2 l/m 0,3 km/h N-NW 0,08 h 1,4 UV-I 144 W/m 2,4 km/h
15.07.2013 16,6 C 79 % 1022,2 hPa 0,0 l/m 0,7 km/h N-NW 7,92 h 3,5 UV-I 392 W/m 3,6 km/h
16.07.2013 18,2 C 74 % 1022,5 hPa 0,0 l/m 0,6 km/h N-NW 10,42 h 3,0 UV-I 382 W/m 2,4 km/h
17.07.2013 20,6 C 73 % 1022,9 hPa 0,0 l/m 1,6 km/h N-NO 9,58 h 3,3 UV-I 402 W/m 7,2 km/h
18.07.2013 21,5 C 69 % 1022,9 hPa 0,0 l/m 1,9 km/h N-NO 10,17 h 3,4 UV-I 420 W/m 8,8 km/h
19.07.2013 19,8 C 72 % 1021,6 hPa 0,0 l/m 2,2 km/h N-NW 11,50 h 3,4 UV-I 432 W/m 8,0 km/h
20.07.2013 17,2 C 85 % 1020,9 hPa 0,0 l/m 0,4 km/h N-NO 3,92 h 2,0 UV-I 224 W/m 4,0 km/h
21.07.2013 21,3 C 63 % 1019,8 hPa 0,0 l/m 1,9 km/h SO 12,92 h 3,6 UV-I 463 W/m 7,6 km/h
22.07.2013 24,7 C 54 % 1015,5 hPa 0,0 l/m 0,1 km/h N-NO 12,83 h 3,4 UV-I 459 W/m 1,2 km/h
23.07.2013 22,3 C 67 % 1012,0 hPa 0,0 l/m 0,1 km/h S-SO 9,67 h 3,3 UV-I 383 W/m 1,6 km/h
24.07.2013 20,3 C 85 % 1013,4 hPa 0,2 l/m 1,0 km/h W 5,08 h 2,1 UV-I 252 W/m 4,4 km/h
25.07.2013 20,6 C 88 % 1014,5 hPa 1,2 l/m 2,5 km/h S-SO 6,67 h 2,8 UV-I 313 W/m 5,2 km/h
26.07.2013 20,5 C 90 % 1013,4 hPa 1,6 l/m 0,7 km/h S-SO 5,50 h 2,4 UV-I 233 W/m 2,4 km/h
27.07.2013 24,5 C 81 % 1007,3 hPa 0,0 l/m 3,0 km/h SO 9,92 h 2,7 UV-I 355 W/m 6,8 km/h
28.07.2013 21,0 C 85 % 1010,8 hPa 0,6 l/m 0,9 km/h S 3,83 h 2,2 UV-I 216 W/m 5,2 km/h
29.07.2013 18,5 C 91 % 1013,6 hPa 6,4 l/m 0,1 km/h S 2,17 h 2,2 UV-I 185 W/m 1,2 km/h
30.07.2013 16,8 C 84 % 1015,8 hPa 0,6 l/m 0,4 km/h S 4,58 h 2,8 UV-I 276 W/m 4,8 km/h
31.07.2013 18,0 C 89 % 1016,9 hPa 7,0 l/m 0,9 km/h S 2,00 h 2,0 UV-I 179 W/m 5,6 km/h
01.08.2013 21,3 C 78 % 1015,2 hPa 0,0 l/m 0,8 km/h S 11,50 h 3,7 UV-I 439 W/m 4,8 km/h
02.08.2013 25,5 C 65 % 1011,5 hPa 0,0 l/m 2,1 km/h S-SO 12,50 h 3,4 UV-I 445 W/m 4,8 km/h
03.08.2013 21,6 C 72 % 1017,2 hPa 0,8 l/m 1,3 km/h S 3,42 h 2,4 UV-I 226 W/m 9,6 km/h
04.08.2013 19,0 C 69 % 1020,1 hPa 0,0 l/m 0,3 km/h N-NW 8,75 h 2,9 UV-I 389 W/m 2,4 km/h
05.08.2013 22,4 C 66 % 1014,8 hPa 0,0 l/m 3,0 km/h SO 11,35 h 3,3 UV-I 431 W/m 8,1 km/h
06.08.2013 20,0 C 75 % 1013,9 hPa 0,4 l/m 1,6 km/h NW 8,42 h 3,5 UV-I 376 W/m 8,4 km/h
07.08.2013 20,4 C 83 % 1010,3 hPa 0,0 l/m 2,9 km/h SO 4,08 h 2,6 UV-I 264 W/m 10,8 km/h
08.08.2013 15,1 C 93 % 1016,9 hPa 1,2 l/m 1,1 km/h W 0,58 h 1,4 UV-I 130 W/m 7,7 km/h
09.08.2013 15,6 C 79 % 1019,6 hPa 0,0 l/m 0,1 km/h S-SW 7,50 h 2,3 UV-I 329 W/m 1,2 km/h
10.08.2013 17,0 C 72 % 1018,4 hPa 0,2 l/m 1,1 km/h NW 2,75 h 2,2 UV-I 231 W/m 7,6 km/h
11.08.2013 15,7 C 75 % 1017,3 hPa 0,2 l/m 2,6 km/h S-SW 2,00 h 2,0 UV-I 219 W/m 10,9 km/h
12.08.2013 15,5 C 84 % 1013,7 hPa 1,8 l/m 1,6 km/h S-SW 2,17 h 2,1 UV-I 205 W/m 7,3 km/h
13.08.2013 13,0 C 86 % 1017,7 hPa 5,0 l/m 1,4 km/h W-NW 3,42 h 1,9 UV-I 243 W/m 6,8 km/h
14.08.2013 14,0 C 78 % 1022,4 hPa 0,0 l/m 1,1 km/h NW 6,17 h 2,3 UV-I 327 W/m 5,7 km/h
15.08.2013 16,3 C 78 % 1021,3 hPa 0,0 l/m 0,5 km/h S-SW 5,58 h 2,3 UV-I 261 W/m 2,4 km/h
16.08.2013 19,4 C 64 % 1016,3 hPa 0,0 l/m 3,7 km/h S-SO 11,08 h 2,9 UV-I 427 W/m 6,0 km/h
17.08.2013 18,6 C 79 % 1013,8 hPa 0,0 l/m 0,5 km/h NW 4,00 h 2,4 UV-I 265 W/m 2,8 km/h
18.08.2013 17,5 C 88 % 1012,0 hPa 4,2 l/m 3,2 km/h S 0,08 h 1,1 UV-I 112 W/m 6,4 km/h
19.08.2013 15,1 C 95 % 1016,5 hPa 14,8 l/m 2,5 km/h NW 1,50 h 1,8 UV-I 181 W/m 12,1 km/h
20.08.2013 13,5 C 85 % 1027,3 hPa 0,2 l/m 2,0 km/h NW 4,33 h 2,3 UV-I 297 W/m 5,6 km/h
21.08.2013 14,0 C 84 % 1024,7 hPa 0,0 l/m 0,0 km/h O 7,50 h 2,2 UV-I 291 W/m 0,0 km/h
22.08.2013 16,7 C 79 % 1019,4 hPa 0,0 l/m 0,0 km/h NW 9,23 h 2,6 UV-I 358 W/m 0,4 km/h
23.08.2013 17,8 C 69 % 1017,3 hPa 0,0 l/m 5,2 km/h SO 4,17 h 1,9 UV-I 243 W/m 14,1 km/h
24.08.2013 19,1 C 68 % 1011,7 hPa 0,0 l/m 5,6 km/h SO 8,83 h 2,4 UV-I 332 W/m 13,7 km/h
25.08.2013 19,1 C 63 % 1011,8 hPa 0,0 l/m 0,5 km/h NO 7,25 h 2,2 UV-I 303 W/m 8,1 km/h
26.08.2013 15,2 C 68 % 1015,9 hPa 0,0 l/m 3,3 km/h N-NO 7,67 h 2,5 UV-I 344 W/m 10,1 km/h
27.08.2013 15,1 C 72 % 1015,7 hPa 0,0 l/m 0,3 km/h NO 5,42 h 2,1 UV-I 290 W/m 2,0 km/h
28.08.2013 14,3 C 82 % 1019,2 hPa 0,0 l/m 2,3 km/h N-NO 3,42 h 1,9 UV-I 235 W/m 5,2 km/h
29.08.2013 15,3 C 76 % 1021,1 hPa 0,0 l/m 0,0 km/h S-SO 6,50 h 2,1 UV-I 270 W/m 0,4 km/h
30.08.2013 17,1 C 69 % 1019,0 hPa 0,0 l/m 1,3 km/h W-NW 8,08 h 2,2 UV-I 308 W/m 5,2 km/h
31.08.2013 14,3 C 94 % 1020,0 hPa 5,6 l/m 0,9 km/h N-NW 0,92 h 1,3 UV-I 132 W/m 6,9 km/h
01.09.2013 12,7 C 77 % 1024,4 hPa 0,0 l/m 2,3 km/h NW 3,58 h 1,8 UV-I 232 W/m 16,9 km/h
02.09.2013 14,7 C 90 % 1022,1 hPa 0,8 l/m 5,1 km/h W-NW 0,00 h 0,8 UV-I 54 W/m 21,3 km/h
03.09.2013 17,2 C 90 % 1026,3 hPa 0,0 l/m 0,8 km/h W-SW 1,25 h 1,8 UV-I 169 W/m 4,8 km/h
04.09.2013 17,4 C 85 % 1021,8 hPa 0,2 l/m 0,8 km/h SO 10,17 h 2,7 UV-I 385 W/m 2,8 km/h
05.09.2013 20,9 C 69 % 1014,1 hPa 0,0 l/m 3,7 km/h SO 10,50 h 2,8 UV-I 385 W/m 10,5 km/h
06.09.2013 22,6 C 65 % 1009,6 hPa 0,0 l/m 10,2 km/h S-SO 10,17 h 2,7 UV-I 380 W/m 17,7 km/h
07.09.2013 17,0 C 93 % 1016,7 hPa 1,0 l/m 0,0 km/h NW 2,00 h 1,3 UV-I 154 W/m 0,0 km/h
08.09.2013 13,9 C 95 % 1017,3 hPa 0,4 l/m 0,6 km/h N-NW 0,08 h 1,1 UV-I 78 W/m 3,2 km/h
09.09.2013 10,1 C 93 % 1015,9 hPa 5,6 l/m 0,1 km/h S-SW 2,75 h 1,7 UV-I 209 W/m 0,8 km/h
10.09.2013 10,3 C 95 % 1010,4 hPa 12,2 l/m 4,3 km/h S 0,50 h 1,0 UV-I 111 W/m 14,5 km/h
11.09.2013 10,7 C 97 % 1009,9 hPa 21,6 l/m 3,0 km/h NW 0,58 h 0,9 UV-I 72 W/m 15,7 km/h
12.09.2013 11,3 C 96 % 1015,7 hPa 6,4 l/m 0,8 km/h NW 1,08 h 1,1 UV-I 106 W/m 2,8 km/h
13.09.2013 12,1 C 94 % 1018,8 hPa 0,2 l/m 0,2 km/h NW 1,92 h 1,6 UV-I 181 W/m 3,6 km/h
14.09.2013 14,1 C 94 % 1011,5 hPa 7,0 l/m 5,1 km/h S 0,33 h 1,5 UV-I 128 W/m 18,5 km/h
15.09.2013 12,7 C 81 % 1008,4 hPa 0,2 l/m 2,1 km/h NW 2,83 h 1,7 UV-I 225 W/m 10,8 km/h
16.09.2013 8,4 C 91 % 1000,0 hPa 10,0 l/m 3,6 km/h S 2,92 h 1,3 UV-I 185 W/m 9,6 km/h
17.09.2013 8,8 C 84 % 1001,6 hPa 2,0 l/m 3,0 km/h S 3,00 h 1,2 UV-I 174 W/m 7,7 km/h
18.09.2013 10,1 C 92 % 999,7 hPa 7,6 l/m 2,4 km/h NW 1,50 h 1,3 UV-I 156 W/m 12,5 km/h
19.09.2013 10,1 C 91 % 1010,7 hPa 1,8 l/m 3,3 km/h W-NW 1,50 h 1,4 UV-I 164 W/m 12,8 km/h
20.09.2013 12,4 C 94 % 1015,5 hPa 6,0 l/m 1,2 km/h S 0,08 h 1,3 UV-I 99 W/m 13,3 km/h
21.09.2013 11,8 C 91 % 1025,7 hPa 0,0 l/m 0,1 km/h W-NW 1,00 h 1,1 UV-I 128 W/m 2,0 km/h
22.09.2013 13,9 C 93 % 1026,0 hPa 0,0 l/m 0,2 km/h W-NW 0,25 h 1,1 UV-I 93 W/m 2,4 km/h
23.09.2013 13,9 C 94 % 1022,9 hPa 0,2 l/m 0,7 km/h NW 0,00 h 0,8 UV-I 70 W/m 5,7 km/h
24.09.2013 13,3 C 91 % 1015,9 hPa 0,0 l/m 0,1 km/h S-SW 0,00 h 1,0 UV-I 93 W/m 1,2 km/h
25.09.2013 14,7 C 89 % 1010,0 hPa 0,2 l/m 0,1 km/h SO 4,58 h 1,6 UV-I 218 W/m 2,4 km/h
26.09.2013 11,2 C 90 % 1015,4 hPa 0,0 l/m 0,4 km/h NW 1,08 h 1,4 UV-I 127 W/m 4,4 km/h
27.09.2013 7,2 C 86 % 1018,1 hPa 0,2 l/m 0,9 km/h SO 8,00 h 1,9 UV-I 316 W/m 5,3 km/h
28.09.2013 10,1 C 77 % 1014,8 hPa 0,0 l/m 4,8 km/h SO 9,00 h 2,0 UV-I 324 W/m 12,9 km/h
29.09.2013 9,9 C 74 % 1012,8 hPa 0,0 l/m 5,1 km/h O-SO 9,00 h 1,8 UV-I 315 W/m 20,1 km/h
30.09.2013 8,9 C 74 % 1012,3 hPa 0,0 l/m 3,2 km/h O-SO 8,83 h 1,7 UV-I 315 W/m 12,1 km/h
01.10.2013 7,8 C 74 % 1016,3 hPa 0,0 l/m 2,8 km/h O-SO 8,83 h 1,7 UV-I 315 W/m 8,9 km/h
02.10.2013 8,0 C 64 % 1021,5 hPa 0,0 l/m 7,6 km/h SO 8,75 h 1,6 UV-I 304 W/m 21,7 km/h
03.10.2013 9,0 C 59 % 1020,3 hPa 0,0 l/m 15,6 km/h SO 7,42 h 1,6 UV-I 279 W/m 30,2 km/h
04.10.2013 11,0 C 81 % 1017,6 hPa 0,0 l/m 6,3 km/h S-SO 0,50 h 0,9 UV-I 97 W/m 13,7 km/h
05.10.2013 12,9 C 98 % 1017,9 hPa 12,2 l/m 0,0 km/h S-SO 0,00 h 0,6 UV-I 46 W/m 0,0 km/h
06.10.2013 11,5 C 96 % 1025,3 hPa 0,2 l/m 0,0 km/h N 0,00 h 0,8 UV-I 79 W/m 0,0 km/h
07.10.2013 11,6 C 94 % 1026,2 hPa 0,0 l/m 0,0 km/h N 2,83 h 1,3 UV-I 162 W/m 0,0 km/h
08.10.2013 12,5 C 94 % 1023,9 hPa 0,0 l/m 0,0 km/h N 0,00 h 0,7 UV-I 65 W/m 0,0 km/h
09.10.2013 11,6 C 94 % 1013,6 hPa 5,6 l/m 1,7 km/h S 0,00 h 0,7 UV-I 61 W/m 5,2 km/h
10.10.2013 5,1 C 91 % 1008,2 hPa 7,4 l/m 0,1 km/h N-NW 3,42 h 1,2 UV-I 194 W/m 1,2 km/h
11.10.2013 6,4 C 98 % 1015,2 hPa 9,2 l/m 0,1 km/h SO 0,00 h 0,6 UV-I 34 W/m 0,8 km/h
12.10.2013 6,4 C 95 % 1017,0 hPa 4,0 l/m 0,0 km/h SO 2,08 h 0,9 UV-I 113 W/m 0,0 km/h
13.10.2013 6,5 C 89 % 1017,8 hPa 0,2 l/m 15,1 km/h S-SO 3,08 h 1,1 UV-I 185 W/m 27,0 km/h
14.10.2013 8,8 C 90 % 1014,8 hPa 0,0 l/m 11,5 km/h S-SO 4,92 h 1,2 UV-I 214 W/m 19,3 km/h
15.10.2013 8,7 C 95 % 1007,1 hPa 9,4 l/m 1,5 km/h S-SO 1,17 h 0,9 UV-I 113 W/m 9,7 km/h
16.10.2013 7,9 C 98 % 1012,3 hPa 1,2 l/m 4,0 km/h S-SO 0,00 h 0,0 UV-I 30 W/m 10,1 km/h
17.10.2013 11,7 C 87 % 1011,1 hPa 2,8 l/m 4,8 km/h S-SW 0,83 h 1,0 UV-I 99 W/m 22,9 km/h
18.10.2013 9,2 C 91 % 1018,5 hPa 0,0 l/m 4,3 km/h N-NW 2,67 h 1,1 UV-I 162 W/m 11,3 km/h
19.10.2013 12,3 C 87 % 1011,1 hPa 0,2 l/m 8,6 km/h S-SO 6,25 h 1,3 UV-I 220 W/m 12,1 km/h
20.10.2013 13,7 C 94 % 1011,8 hPa 0,0 l/m 0,4 km/h S 0,08 h 0,8 UV-I 104 W/m 1,6 km/h
21.10.2013 13,2 C 89 % 1013,5 hPa 0,4 l/m 7,5 km/h S 1,17 h 0,8 UV-I 118 W/m 13,7 km/h
22.10.2013 16,8 C 81 % 1007,1 hPa 0,0 l/m 8,5 km/h S-SO 5,42 h 1,2 UV-I 197 W/m 14,9 km/h
23.10.2013 15,2 C 86 % 1005,9 hPa 4,2 l/m 14,6 km/h S 1,67 h 1,0 UV-I 120 W/m 28,6 km/h
24.10.2013 10,2 C 90 % 1017,3 hPa 0,2 l/m 1,3 km/h S-SW 3,25 h 1,0 UV-I 163 W/m 6,1 km/h
25.10.2013 12,3 C 96 % 1013,0 hPa 1,4 l/m 9,8 km/h S-SO 0,75 h 0,7 UV-I 67 W/m 16,5 km/h
26.10.2013 15,8 C 89 % 1010,8 hPa 4,2 l/m 8,0 km/h S 3,75 h 1,0 UV-I 143 W/m 16,5 km/h
27.10.2013 12,6 C 84 % 1003,6 hPa 4,6 l/m 18,0 km/h S 2,25 h 0,9 UV-I 113 W/m 33,4 km/h
28.10.2013 12,8 C 77 % 999,7 hPa 3,6 l/m 19,7 km/h S 0,08 h 0,8 UV-I 65 W/m 37,8 km/h
29.10.2013 9,3 C 84 % 1011,8 hPa 2,0 l/m 11,5 km/h S 1,58 h 0,7 UV-I 96 W/m 21,7 km/h
30.10.2013 6,1 C 87 % 1023,3 hPa 0,0 l/m 3,5 km/h S-SW 2,00 h 0,7 UV-I 132 W/m 9,6 km/h
31.10.2013 5,9 C 87 % 1021,7 hPa 0,2 l/m 2,7 km/h S 6,83 h 1,0 UV-I 209 W/m 7,6 km/h
01.11.2013 8,0 C 94 % 1013,3 hPa 2,2 l/m 8,7 km/h S 0,00 h 0,6 UV-I 56 W/m 13,7 km/h
02.11.2013 9,9 C 98 % 1001,9 hPa 7,8 l/m 7,4 km/h S 0,00 h 0,5 UV-I 30 W/m 17,3 km/h
03.11.2013 7,9 C 83 % 1001,1 hPa 7,4 l/m 14,3 km/h S-SW 1,08 h 0,6 UV-I 92 W/m 29,0 km/h
04.11.2013 7,6 C 92 % 988,6 hPa 11,4 l/m 16,6 km/h S 0,58 h 0,7 UV-I 92 W/m 35,4 km/h
05.11.2013 4,7 C 90 % 994,3 hPa 6,6 l/m 11,9 km/h S-SO 1,25 h 0,8 UV-I 102 W/m 21,7 km/h
06.11.2013 7,7 C 94 % 1001,1 hPa 8,6 l/m 2,8 km/h S-SW 0,17 h 0,6 UV-I 60 W/m 16,5 km/h
07.11.2013 9,9 C 97 % 1006,3 hPa 12,8 l/m 2,7 km/h S-SW 0,00 h 0,5 UV-I 42 W/m 8,4 km/h
08.11.2013 9,0 C 97 % 1005,6 hPa 5,0 l/m 0,1 km/h S-SO 0,00 h 0,5 UV-I 54 W/m 1,2 km/h
09.11.2013 7,6 C 86 % 1006,3 hPa 0,0 l/m 5,3 km/h S 1,33 h 0,7 UV-I 117 W/m 14,9 km/h
10.11.2013 4,5 C 93 % 1011,3 hPa 1,2 l/m 2,8 km/h NW 0,17 h 0,6 UV-I 45 W/m 10,4 km/h
11.11.2013 4,4 C 89 % 1029,5 hPa 0,0 l/m 3,5 km/h S-SO 4,42 h 0,9 UV-I 151 W/m 7,6 km/h
12.11.2013 5,8 C 86 % 1025,1 hPa 0,6 l/m 4,7 km/h S 0,33 h 0,7 UV-I 86 W/m 8,8 km/h
13.11.2013 3,5 C 96 % 1029,7 hPa 0,2 l/m 0,6 km/h N-NW 1,00 h 0,6 UV-I 87 W/m 2,0 km/h
14.11.2013 2,7 C 93 % 1020,3 hPa 0,2 l/m 0,8 km/h S 3,50 h 0,8 UV-I 149 W/m 2,4 km/h
15.11.2013 2,5 C 91 % 1028,7 hPa 0,0 l/m 0,1 km/h N-NO 4,25 h 0,7 UV-I 142 W/m 1,6 km/h
16.11.2013 1,4 C 89 % 1030,1 hPa 0,2 l/m 0,1 km/h S-SO 5,83 h 0,8 UV-I 184 W/m 1,2 km/h
17.11.2013 4,1 C 96 % 1023,1 hPa 0,0 l/m 0,1 km/h SO 0,00 h 0,5 UV-I 53 W/m 2,4 km/h
18.11.2013 3,8 C 93 % 1009,6 hPa 0,2 l/m 1,1 km/h S-SW 0,00 h 0,0 UV-I 19 W/m 11,3 km/h
19.11.2013 4,3 C 91 % 1006,7 hPa 1,4 l/m 0,0 km/h N 0,58 h 0,6 UV-I 74 W/m 0,0 km/h
20.11.2013 1,5 C 95 % 1003,1 hPa 0,6 l/m 1,0 km/h N 0,75 h 0,6 UV-I 70 W/m 2,8 km/h
21.11.2013 0,8 C 96 % 1004,3 hPa 0,4 l/m 3,8 km/h SO 0,00 h 0,5 UV-I 55 W/m 13,7 km/h
22.11.2013 2,2 C 98 % 1012,0 hPa 2,2 l/m 5,7 km/h N-NO 0,00 h 0,0 UV-I 27 W/m 18,5 km/h
23.11.2013 4,3 C 98 % 1018,3 hPa 0,4 l/m 2,0 km/h N-NO 0,00 h 0,0 UV-I 14 W/m 4,4 km/h
24.11.2013 0,4 C 94 % 1023,2 hPa 0,6 l/m 2,0 km/h N-NW 0,75 h 0,0 UV-I 44 W/m 4,4 km/h
25.11.2013 -1,5 C 96 % 1030,2 hPa 0,2 l/m 0,0 km/h N 0,00 h 0,0 UV-I 28 W/m 0,8 km/h
26.11.2013 -3,6 C 97 % 1034,4 hPa 0,2 l/m 0,0 km/h N 0,25 h 0,0 UV-I 56 W/m 0,0 km/h
27.11.2013 1,9 C 99 % 1032,2 hPa 0,8 l/m 3,3 km/h SW 0,00 h 0,0 UV-I 27 W/m 10,9 km/h
28.11.2013 4,6 C 99 % 1030,0 hPa 3,6 l/m 2,5 km/h N-NW 0,00 h 0,0 UV-I 23 W/m 7,6 km/h
29.11.2013 3,9 C 96 % 1015,3 hPa 5,4 l/m 8,6 km/h S-SW 0,00 h 0,5 UV-I 21 W/m 24,6 km/h
30.11.2013 3,6 C 98 % 1020,9 hPa 3,4 l/m 0,4 km/h N-NW 0,00 h 0,0 UV-I 20 W/m 4,8 km/h
01.12.2013 4,8 C 99 % 1028,6 hPa 2,6 l/m 1,0 km/h NW 0,00 h 0,5 UV-I 25 W/m 8,0 km/h
02.12.2013 2,7 C 95 % 1033,3 hPa 0,0 l/m 0,0 km/h S-SO 1,17 h 0,6 UV-I 85 W/m 0,0 km/h
03.12.2013 -0,1 C 91 % 1027,9 hPa 0,2 l/m 0,0 km/h S 4,08 h 0,6 UV-I 118 W/m 0,0 km/h
04.12.2013 2,9 C 97 % 1024,8 hPa 4,0 l/m 5,0 km/h NW 0,00 h 0,0 UV-I 25 W/m 15,3 km/h
05.12.2013 2,3 C 91 % 1011,7 hPa 7,0 l/m 17,9 km/h S-SW 0,00 h 0,0 UV-I 46 W/m 39,0 km/h
06.12.2013 0,5 C 92 % 1016,8 hPa 0,0 l/m 9,9 km/h W 0,00 h 0,5 UV-I 40 W/m 31,0 km/h
07.12.2013 2,7 C 96 % 1023,0 hPa 3,2 l/m 1,9 km/h W 0,17 h 0,5 UV-I 43 W/m 11,7 km/h
08.12.2013 6,0 C 96 % 1022,3 hPa 2,6 l/m 8,3 km/h S-SW 0,00 h 0,0 UV-I 24 W/m 30,2 km/h
09.12.2013 6,3 C 98 % 1028,2 hPa 4,0 l/m 6,1 km/h W 0,00 h 0,0 UV-I 10 W/m 21,4 km/h
10.12.2013 4,7 C 99 % 1034,5 hPa 0,0 l/m 0,0 km/h S-SO 0,00 h 0,5 UV-I 49 W/m 1,2 km/h
11.12.2013 3,4 C 99 % 1033,4 hPa 0,2 l/m 3,0 km/h S-SO 2,00 h 0,6 UV-I 94 W/m 5,6 km/h
12.12.2013 1,5 C 97 % 1028,0 hPa 0,2 l/m 9,4 km/h S-SO 3,83 h 0,6 UV-I 106 W/m 12,5 km/h
13.12.2013 -0,8 C 96 % 1024,4 hPa 0,2 l/m 2,7 km/h S 4,33 h 0,6 UV-I 116 W/m 4,0 km/h
14.12.2013 1,7 C 98 % 1027,0 hPa 1,6 l/m 1,5 km/h S 0,00 h 0,0 UV-I 14 W/m 2,8 km/h
15.12.2013 4,3 C 95 % 1027,0 hPa 1,4 l/m 9,6 km/h S 0,08 h 0,0 UV-I 26 W/m 15,7 km/h
16.12.2013 3,3 C 85 % 1025,0 hPa 0,0 l/m 11,3 km/h S 4,83 h 0,6 UV-I 117 W/m 15,3 km/h
17.12.2013 4,9 C 87 % 1023,7 hPa 0,0 l/m 3,2 km/h S 1,83 h 0,5 UV-I 91 W/m 4,4 km/h
18.12.2013 5,5 C 89 % 1016,2 hPa 0,0 l/m 16,3 km/h S 0,17 h 0,0 UV-I 47 W/m 26,5 km/h
19.12.2013 5,2 C 94 % 1008,4 hPa 3,2 l/m 8,1 km/h S-SO 0,08 h 0,0 UV-I 28 W/m 12,9 km/h
20.12.2013 3,3 C 92 % 1024,3 hPa 1,0 l/m 5,0 km/h S 1,08 h 0,0 UV-I 47 W/m 12,9 km/h
21.12.2013 2,4 C 82 % 1022,4 hPa 0,0 l/m 8,1 km/h S 0,08 h 0,5 UV-I 60 W/m 15,7 km/h
22.12.2013 6,8 C 91 % 1013,9 hPa 8,0 l/m 12,4 km/h S 0,00 h 0,0 UV-I 24 W/m 27,3 km/h
23.12.2013 7,0 C 87 % 1009,6 hPa 0,0 l/m 14,7 km/h S 3,42 h 0,5 UV-I 106 W/m 26,2 km/h
24.12.2013 10,2 C 78 % 992,8 hPa 0,0 l/m 31,6 km/h S 0,83 h 0,5 UV-I 65 W/m 47,5 km/h
25.12.2013 5,8 C 92 % 992,1 hPa 1,2 l/m 4,0 km/h S 0,00 h 0,0 UV-I 50 W/m 8,4 km/h
26.12.2013 4,5 C 98 % 998,4 hPa 2,2 l/m 2,8 km/h W 0,00 h 0,0 UV-I 27 W/m 10,5 km/h
27.12.2013 5,3 C 85 % 999,0 hPa 0,0 l/m 26,1 km/h S 1,83 h 0,6 UV-I 59 W/m 38,6 km/h
28.12.2013 5,8 C 95 % 1001,1 hPa 5,8 l/m 5,7 km/h S 0,00 h 0,0 UV-I 30 W/m 9,6 km/h
29.12.2013 3,9 C 93 % 1017,6 hPa 6,0 l/m 8,0 km/h S-SW 0,00 h 0,0 UV-I 26 W/m 20,5 km/h
30.12.2013 2,1 C 89 % 1022,6 hPa 0,0 l/m 19,1 km/h S-SO 4,08 h 0,6 UV-I 112 W/m 28,6 km/h
31.12.2013 2,3 C 84 % 1014,8 hPa 0,0 l/m 15,0 km/h S-SO 3,50 h 0,6 UV-I 109 W/m 21,3 km/h
Min-Datum 15.03.13 04.08.13 04.11.13 208 Tage 01.01.13 - - - - 06.01.13
Min-Zeit 06:05 17:35 14:45 - 18:00 - - - - 22:10
Minimum -13,8 C 30 % 982,8 hPa - 0,0 km/h - - - - 0,0 km/h
Max-Datum 19.06.13 03.01.13 26.11.13 26.05.13 28.10.13 - 18.06.13 13.06.13 10.06.13 28.10.13
Max-Zeit 17:15 04:55 10:30 09:40 12:35 - 20:05 13:25 13:35 11:10
Maximum 33,4 C 100 % 1035,7 hPa 34,8 l/m 43,1 km/h
S
- 12,92 h 8,6 UV-I 1194 W/m 67,6 km/h
S-SW
Durchschnitt 8,3 C 85 % 1015,2 hPa #745,6 l/m 3,6 km/h S #1246:38 h 1,6 UV-I 183 W/m 10,2 km/h

Durchschnitt Minimum Temp.4,6 C
Durchschnitt Maximum Temp.12,2 C